Home   Weather   Carbondale   Past weeks
Flag for USA

Past Weather in Carbondale, Illinois, USA — Yesterday and Last 2 Weeks

Now
37 °F

Fog.


Feels Like: 37 °F
Forecast: 61 / 36 °F
Wind: No wind

Location: Southern Illinois Airport

Current Time: Oct 17, 2019 at 3:27:02 am

Latest Report: Oct 17, 2019 at 2:58 am


Visibility: 2 mi

Pressure: 30.10 "Hg

Humidity: 93%

Dew Point: 35 °F

Location of CarbondaleLocation

Past Weather in Carbondale — Graph

°F

Carbondale Temperature Yesterday

Maximum temperature yesterday: 57 °F (at 12:52 am)
Minimum temperature yesterday: 37 °F (at 11:52 pm)
Average temperature yesterday: 49 °F

High & Low Weather Summary for the Past Weeks

 TemperatureHumidityPressure
High95 °F (Oct 2, 1:52 pm)97% (Oct 8, 2:42 am)30.30 "Hg (Oct 8, 2:42 am)
Low33 °F (Oct 12, 6:52 am)22% (Oct 7, 3:52 pm)29.83 "Hg (Oct 15, 7:52 pm)
Average59 °F74%30.07 "Hg
* Reported Oct 2 1:52 am — Oct 17 1:52 am, Carbondale. Weather by CustomWeather, © 2019

Note: Actual official high and low records may vary slightly from our data, if they occured in-between our weather recording intervals... More about our weather records

Advertising

Carbondale Weather History for the Previous 24 Hours

Scroll right to see more
 ConditionsComfort  
Time TempWeatherWind HumidityBarometerVisibility
1:52 am
Thu, Oct 17
36 °FClear.No wind92%30.11 "Hg9 mi
12:52 am37 °FPassing clouds.No wind89%30.10 "Hg10 mi
11:52 pm
Wed, Oct 16
37 °FClear.No wind93%30.10 "Hg10 mi
10:52 pm41 °FClear.3 mph93%30.10 "Hg10 mi
9:52 pm40 °FClear.No wind89%30.10 "Hg10 mi
8:52 pm40 °FClear.No wind89%30.10 "Hg10 mi
7:52 pm44 °FClear.3 mph79%30.11 "Hg10 mi
6:52 pm48 °FClear.3 mph66%30.10 "Hg10 mi
5:52 pm52 °FPartly sunny.10 mph57%30.10 "Hg10 mi
4:52 pm54 °FPassing clouds.9 mph53%30.10 "Hg10 mi
3:52 pm54 °FOvercast.14 mph53%30.09 "Hg10 mi
2:52 pm56 °FPartly sunny.13 mph47%30.08 "Hg10 mi
1:52 pm57 °FPartly sunny.9 mph47%30.08 "Hg10 mi
12:52 pm55 °FPartly sunny.12 mph51%30.07 "Hg10 mi
11:52 am55 °FPartly sunny.16 mph49%30.08 "Hg10 mi
10:52 am55 °FScattered clouds.15 mph53%30.08 "Hg10 mi
9:52 am51 °FPassing clouds.13 mph61%30.08 "Hg10 mi
8:52 am48 °FSunny.12 mph66%30.08 "Hg10 mi
7:52 am45 °FSunny.8 mph71%30.04 "Hg10 mi
6:52 am44 °FClear.7 mph73%30.02 "Hg10 mi
5:52 am45 °FClear.6 mph71%30.01 "Hg10 mi
4:52 am46 °FClear.9 mph66%29.99 "Hg10 mi
3:52 am48 °FClear.10 mph61%29.98 "Hg10 mi
Weather by CustomWeather, © 2019

See weather overview